Regional Weather Roundup
Issued by NWS Kansas City/Pleasant Hill, MO

Home | Current Version | Previous Version | Graphics & Text | Print | Product List | Glossary Off
Versions: 1 2 3 4 5 6 7 8 9 10 11 12 13 14 15 16 17 18 19 20 21 22 23 24 25 26 27 28 29 30 31 32 33 34 35 36 37 38 39 40 41 42 43 44 45 46 47 48 49 50

000
ASUS43 KEAX 292010
RWREAX

WEATHER ROUNDUP FOR EASTERN KANSAS AND NORTHWEST MISSOURI
NATIONAL WEATHER SERVICE KANSAS CITY/PLEASANT HILL MO
300 PM CDT FRI JUL 29 2016

KSZ040-057-103>105-MOZ028-029-037-043-292100-
...KANSAS CITY METROPOLITAN AREA...

CITY           SKY/WX    TMP DP  RH WIND       PRES   REMARKS
K.C. INTL      PTSUNNY   84  63  49 N8        30.00S
K.C. DOWNTOWN  SUNNY     86  63  45 W9        29.97F
LEES SUMMIT    MOSUNNY   84  65  52 N8        29.99F
OLATHE - IXD   MOSUNNY   84  66  54 N13       30.00S
OLATHE - OJC   MOSUNNY   85  64  49 NW9       29.99F
LAWRENCE       SUNNY     85  67  54 N9        29.99F

$$

MOZ001>008-011>017-020>025-030>033-038>040-044>046-053-054-292100-
...NORTHERN AND CENTRAL MISSOURI...

CITY           SKY/WX    TMP DP  RH WIND       PRES   REMARKS
ST. JOSEPH     MOSUNNY   81  63  54 N8        30.00F
MOSBY          PTCLDY    82  61  47 NW6       29.98F
WHITEMAN AFB   MOSUNNY   83  69  63 N9        29.95F
CLINTON        MOSUNNY   84  72  65 N6        29.96F
SEDALIA        MOSUNNY   84  71  65 N10       29.98S
WARSAW         NOT AVBL
CHILLICOTHE      N/A     85  63  47 NW8       29.99S
KIRKSVILLE     PTSUNNY   79  63  57 NW9       29.97F

$$

MOZ041-047>049-056>058-063>065-088>090-097-292100-
...EASTERN AND SOUTHERN MISSOURI...

CITY           SKY/WX    TMP DP  RH WIND       PRES   REMARKS
ST. LOUIS INTL PTSUNNY   85  68  56 NW9       29.94F
SPIRIT OF STL  MOSUNNY   86  69  56 NW7       29.92F HX  90
COLUMBIA       MOSUNNY   84  70  62 NW8       29.96S
JEFFERSON CITY CLOUDY    83  69  62 VRB5      29.94S
ROLLA          TSTM      74  71  91 SW12      29.96R FOG
OSAGE BEACH    CLOUDY    77  68  73 NE7       29.96F
SPRINGFIELD    CLOUDY    86  68  54 W3        29.97F
BRANSON        CLOUDY    72  68  88 CALM      30.01S
JOPLIN         MOSUNNY   86  70  58 NW8       29.98F HX  90
WEST PLAINS    LGT RAIN  72  68  87 SW9G20    30.00S FOG

$$

IAZ060-094-KSZ022-034>040-054-083-096-NEZ052-066-093-292100-
...KANSAS...SOUTHEAST NEBRASKA AND IOWA...

CITY           SKY/WX    TMP DP  RH WIND       PRES   REMARKS
TOPEKA         MOSUNNY   84  66  54 N7        29.99F
MANHATTAN      CLOUDY    81  68  64 NE6       30.01F
EMPORIA        MOSUNNY   86  66  51 N7        30.00F
CHANUTE        MOSUNNY   85  70  60 NW7       29.98F
WICHITA        MOSUNNY   88  67  49 NW7G17    30.01F HX  91
OMAHA          MOSUNNY   81  61  50 NW8       30.03S
LINCOLN        PTSUNNY   82  64  54 N10       30.05F
FALLS CITY     MOSUNNY   81  65  58 N10       30.01F
LAMONI         MOSUNNY   77  64  64 NW8       29.99F
DES MOINES     CLOUDY    71  63  75 NW10      30.00F

$$




USA.gov is the U.S. government's official web portal to all federal, state and local government web resources and services.